レモン彗星

C/2022 S4 ( Lemmon )

English version
Home page
Updated on December 1, 2023

---------------------------------------------------------------------

・ プロフィール

発見日 2022年9月19日
発見光度 20.6等
発見者 Mt. Lemmon

・ 写真集

・ 軌道要素

Epoch 2023 Sept. 13.0 TT = JDT 2460200.5
T 2024 July 18.41639 TT                                 Rudenko
q   2.7632926            (2000.0)            P               Q
z  +0.0003092      Peri.  268.47236     +0.14583880     -0.76047142
 +/-0.0000049      Node   220.17398     +0.26946994     -0.58490156
e   0.9991457      Incl.  101.21908     -0.95190178     -0.28208754
>From 281 observations 2022 Aug. 26-2023 Sept. 27, mean residual 0".4.

・ 星図

・ 光度変化

        m1 = 9.0 + 5 logΔ + 8.5 log r

---------------------------------------------------------------------

軌道要素はM.P.E.C. 2023-S260に掲載されたものです。
星図はステラナビゲータ Ver.10 (アストロアーツ) で作成したものです。
光度グラフはComet for Windowsで作成したものです。

---------------------------------------------------------------------

Copyright(C) Seiichi Yoshida (comet@aerith.net). All rights reserved.